Cross City, FL

8:58 PM EST on January 20, 2018 (GMT -0500)
Cross City

Weather History for KCTY - April, 2013

Change the Weather History Date:

Wednesday, April 17, 2013

  Actual Average Record
Temperature  
Mean Temperature 74 °F 67 °F  
Max Temperature 86 °F 80 °F 87 °F (2002)
Min Temperature 62 °F 54 °F 34 °F (2008)
Degree Days  
Heating Degree Days 0 1  
Month to date heating degree days 11 38  
Since 1 July heating degree days 1104 1293  
Cooling Degree Days 9 3  
Month to date cooling degree days 95 50  
Year to date cooling degree days 213 124  
Growing Degree Days 24 (Base 50)    
Moisture  
Dew Point 63 °F    
Average Humidity 72    
Maximum Humidity 100    
Minimum Humidity 45    
Precipitation  
Precipitation 0.00 in 0.09 in 0.50 in (1999)
Month to date precipitation 1.49 2.13  
Year to date precipitation 6.21 13.65  
Sea Level Pressure  
Sea Level Pressure 30.13 in    
Wind  
Wind Speed 4 mph (ENE)    
Max Wind Speed 12 mph    
Max Gust Speed 17 mph    
T = Trace of Precipitation, MM = Missing Value Source: NWS Daily Summary

Daily Weather History Graph

Daily Weather History Graph

Search for Another Location

Airport or City:

Trip Planner

Search our weather history database for the weather conditions in past years. The results will help you decide how hot, cold, wet, or windy it might be!

Date:

Astronomy

Apr. 17, 2013 Rise Set
Actual Time 7:03 AM EDT 8:00 PM EDT
Civil Twilight 6:38 AM EDT 8:25 PM EDT
Nautical Twilight 6:10 AM EDT 8:54 PM EDT
Astronomical Twilight 5:40 AM EDT 9:24 PM EDT
Moon 12:24 PM EDT (4/17) 1:28 AM EDT (4/17)
Length of Visible Light 13h 46m
Length of Day
12h 57m
Waxing Crescent, 42% of the Moon is Illuminated
Apr 17
Waxing Crescent
Apr 18
First Quarter
Apr 25
Full
May 2
Last Quarter
May 9
New

Hourly Weather History & Observations

Time (EDT) Temp. Heat Index Dew Point Humidity Pressure Visibility Wind Dir Wind Speed Gust Speed Precip Events Conditions
12:53 AM 71.1 °F - 64.0 °F 78% 30.16 in - East 3.5 mph - N/A   Unknown
1:53 AM 69.1 °F - 64.0 °F 84% 30.15 in - East 3.5 mph - N/A   Unknown
2:53 AM 66.9 °F - 63.0 °F 87% 30.15 in - Calm Calm - N/A   Unknown
3:53 AM 64.0 °F - 61.0 °F 90% 30.15 in - Calm Calm - N/A   Unknown
4:53 AM 63.0 °F - 60.1 °F 90% 30.15 in - Calm Calm - N/A   Unknown
5:53 AM 63.0 °F - 61.0 °F 93% 30.15 in - NE 4.6 mph - N/A   Unknown
6:53 AM 64.0 °F - 63.0 °F 96% 30.16 in - ENE 3.5 mph - N/A   Unknown
7:53 AM 64.9 °F - 64.0 °F 97% 30.17 in - ENE 3.5 mph - N/A   Unknown
8:53 AM 66.0 °F - 64.9 °F 96% 30.19 in - Variable 3.5 mph - N/A   Unknown
9:53 AM 68.0 °F - 64.9 °F 90% 30.19 in - Variable 3.5 mph - N/A   Unknown
10:53 AM 73.0 °F - 66.0 °F 79% 30.18 in - Variable 3.5 mph - N/A   Unknown
11:53 AM 77.0 °F - 66.0 °F 69% 30.17 in - Calm Calm - N/A   Unknown
12:53 PM 80.1 °F 81.7 °F 64.0 °F 58% 30.15 in - NE 9.2 mph - N/A   Unknown
1:53 PM 78.1 °F - 63.0 °F 60% 30.12 in - Variable 5.8 mph - N/A   Unknown
2:53 PM 82.9 °F 83.7 °F 62.1 °F 49% 30.10 in - Variable 3.5 mph - N/A   Unknown
3:53 PM 84.9 °F 85.4 °F 62.1 °F 46% 30.08 in - Variable 5.8 mph - N/A   Unknown
4:53 PM 86.0 °F 86.3 °F 62.1 °F 44% 30.06 in - NE 9.2 mph - N/A   Unknown
5:53 PM 82.0 °F 83.1 °F 63.0 °F 52% 30.06 in - NE 6.9 mph - N/A   Unknown
6:53 PM 81.0 °F 81.9 °F 62.1 °F 52% 30.07 in - ENE 5.8 mph - N/A   Unknown
7:53 PM 78.1 °F - 62.1 °F 58% 30.07 in - ENE 5.8 mph - N/A   Unknown
8:53 PM 77.0 °F - 62.1 °F 60% 30.09 in - East 5.8 mph - N/A   Unknown
9:53 PM 75.0 °F - 63.0 °F 66% 30.10 in - East 5.8 mph - N/A   Unknown
10:53 PM 72.0 °F - 63.0 °F 73% 30.09 in - ENE 3.5 mph - N/A   Unknown
11:53 PM 70.0 °F - 63.0 °F 78% 30.09 in - ENE 3.5 mph - N/A   Unknown